Skip Page Navigation
NASA JPL Caltech
NASA Logo - Jet Propulsion Laboratory + View the NASA Portal
+ Center for Near-Earth Object Studies
JPL Home Earth Solar System Stars & Galaxies Technology
JPL Solar System Dynamics
BODIES ORBITS EPHEMERIDES TOOLS PHYSICAL DATA DISCOVERY FAQ SITE MAP
JPL Small-Body Database Browser
Search: [ help ]  
382215 (2012 PN36)
Classification: Main-belt Asteroid          SPK-ID: 2382215
Ephemeris | Orbit Diagram | Orbital Elements | Mission Design | Physical Parameters | Discovery Circumstances | Close-Approach Data ]

[ show orbit diagram ]
Orbital Elements at Epoch 2459000.5 (2020-May-31.0) TDB
Reference: JPL 16 (heliocentric ecliptic J2000)
 Element Value Uncertainty (1-sigma)   Units 
e .1158032220581358 6.512e-08  
a 3.143887781652587 6.9008e-08 au
q 2.779815446748013 2.1957e-07 au
i 4.336459403555674 8.8454e-06 deg
node 222.8920939746664 0.00011661 deg
peri 71.66272774854426 0.00012551 deg
M 170.5570032587177 5.1954e-05 deg
tp 2458035.858289433879
(2017-Oct-09.35828943)
0.0002825 TDB
period 2036.099422297122
5.57
6.7038e-05
1.835e-07
d
yr
n .1768086548513672 5.8214e-09 deg/d
Q 3.507960116557162 7.6999e-08 au
  Orbit Determination Parameters
   # obs. used (total)      114  
   data-arc span      5321 days (14.57 yr)  
   first obs. used      2005-05-12  
   last obs. used      2019-12-06  
   planetary ephem.      DE431  
   SB-pert. ephem.      SB431-N16  
   condition code      0  
   norm. resid. RMS      .58234  
   source      ORB  
   producer      Otto Matic  
   solution date      2019-Dec-14 21:17:06  

Additional Information
 Earth MOID = 1.76783 au 
 Jupiter MOID = 1.67576 au 
 T_jup = 3.195 
[ show covariance matrix ]

Ephemeris | Orbit Diagram | Orbital Elements | Mission Design | Physical Parameters | Discovery Circumstances | Close-Approach Data ]

Physical Parameter Table
Parameter Symbol Value Units Sigma Reference Notes
absolute magnitude H 16.0   n/a MPO413419  

382215 (2012 PN36)          Discovered 2007-Oct-11 by Mt. Lemmon Survey at Mount Lemmon
Reference: Last Updated: 2013-12-19

[ show close-approach data ]
Ephemeris | Orbit Diagram | Orbital Elements | Mission Design | Physical Parameters | Discovery Circumstances | Close-Approach Data ]
ABOUT SSD CREDITS/AWARDS PRIVACY/COPYRIGHT GLOSSARY LINKS
FirstGov 2020-Jul-07 13:10 UT
(server date/time)  
NASA Home Page
Site Manager:   Ryan S. Park
Webmaster  Alan B. Chamberlin